{"data":{"norad_id":53895,"intl_designator":"2022-119K","name":"STARLINK-5032","alt_names":[],"object_type":"PAYLOAD","status":"ACTIVE","operator":null,"country":"US","launch_date":"2022-09-24","launch_site_code":"AFETR","launch_vehicle":null,"mission":null,"orbit_class":"UNKNOWN","rcs_meters":null,"size_class":null,"mass_kg":null,"dimensions":null,"purposes":["comms"],"wikipedia_slug":null,"has_3d_model":false,"image_url":null,"decayed_at":null,"tle_current":{"epoch":"2026-07-11T02:57:32.088384Z","epoch_age_seconds":6251019,"freshness":"OLD","line1":"1 53895U 22119K   26192.12328806  .03418152  12195-4  43344-3 0  9992","line2":"2 53895  53.2055  86.0475 0010295 260.8197  99.1685 16.34994375210936","mean_motion":16.34994375,"eccentricity":0.0010295,"inclination_deg":53.2055,"raan_deg":86.0475,"arg_perigee_deg":260.8197,"mean_anomaly_deg":99.1685,"bstar":0.00043344,"rev_number":21093,"period_min":88.073697501253,"perigee_km":172.4013910337,"apogee_km":185.90284933216,"semimajor_km":6557.2891201829,"source":"CELESTRAK","updated_at":"2026-07-11T09:00:52.226949Z"}}}